Weather in Shikarpur

Pakistan     27°57′13″N   68°38′39″E
temp.,
°C
wind,
m/s
gust,
m/s
humid.,
%
clouds,
%
prec.,
mm/h
press.,
hPa
HPBL,
m
11 may, tue
tue1123:00+34e33202 0.0 100148
02:00+34se610290 0.0 999283
05:00+31s48260 0.0 1000176
08:00+35wsw332054 0.0 1002369
11:00+41nw331310 0.0 10021516
14:00+43nw341268 0.0 9995164
17:00+43n13114 0.0 9963867
20:00+37nw2318100 0.0 99967
12 may, wed
wed1223:00+34e13233 0.0 1001106
02:00+32ene33290 0.0 99947
05:00+30ssw33314 0.0 100030
08:00+35wsw33210 0.0 999310
11:00+41w4480 0.0 9992595
14:00+44wnw4560 0.0 9964363
17:00+43wnw4450 0.0 9934179
20:00+37n2390 0.0 99415
13 may, thu
thu1323:00+36n22100 0.0 99412
02:00+32wnw22120 0.0 99412
05:00+31ene814290 0.0 995331
08:00+33e67270 0.0 998514
11:00+40e54160 0.0 9981579
14:00+43e44100 0.0 9963790
17:00+43e4280 0.0 9944453
20:00+38e45110 0.0 99564
14 may, fri
fri1423:00+35e33130 0.0 99527
02:00+33e49210 0.0 995164
05:00+31e510230 0.0 996189
08:00+34ese56240 0.0 998419
11:00+40se44160 0.0 9981340
14:00+44sse4390 0.0 9954527
17:00+44s4385 0.0 9945025
20:00+38se45124 0.0 99554
15 may, sat
sat1523:00+36sse48150 0.0 996182
02:00+32e46220 0.0 996102
05:00+30se48380 0.0 997165
08:00+33s46410 0.0 1000643
11:00+40s56220 0.0 9991504
14:00+44sse55125 0.0 9964858
17:00+43se65976 0.0 9954709
20:00+38se351583 0.0 99675